Test XHTML 1.0 Strict Page for WU-History Testing
Histórico de la Estación METEOCORUÑA
 
Diario Datos del Septiembre 26, 2018 Unidades:  Metrico    Inglés   Ambos
« Prev Dia
Sig Dia »
Diario Semanal Mensual Anual Rango
  Actual: Max: Min: Media:
Temp: -9.2 °C -17.8 °C -9.3 °C -9.3 °C
Rocío: -11.3 °C -17.8 °C -11.8 °C -11.7 °C
Humedad: 78 % Humidity % 71 % 73 %
Vel. viento: 10.3 km/h 0 km/h 7.7 km/h 9.3 km/h
Racha: 25.9 km/h 0 km/h - -
Viento:ENE - - ENE
Presión: 34571.1 hPa 0 hPa 34571.1 hPa -
Lluvia: 0 mm      
Historical Graphs
 
 
Busqueda de Septiembre 26, 2018
Hora Temp Rocío Presión Viento Vel. viento Racha Humedad Ratio lluvia (/hora) Radiación
-17.8 °C -17.8 °C 0 hPa Calm     Humidity % 0 mm SolarRadiationWatts/m^2 W/m2
00:04 -8.8 °C -11.7 °C 34598.1 hPa NE 12.9 km/h 23.3 km/h 71 % 0 mm 0.00 W/m2
00:09 -8.8 °C -11.7 °C 34594.8 hPa NE 12.9 km/h 20.8 km/h 71 % 0 mm 0.00 W/m2
00:14 -8.8 °C -11.8 °C 34594.8 hPa ENE 10.3 km/h 20.8 km/h 71 % 0 mm 0.00 W/m2
00:19 -8.8 °C -11.8 °C 34594.8 hPa East 10.3 km/h 18.2 km/h 71 % 0 mm 0.00 W/m2
00:24 -8.9 °C -11.7 °C 34594.8 hPa ENE 7.7 km/h 18.2 km/h 72 % 0 mm 0.00 W/m2
00:29 -8.9 °C -11.7 °C 34594.8 hPa NE 7.7 km/h 18.2 km/h 72 % 0 mm 0.00 W/m2
00:34 -8.9 °C -11.6 °C 34594.8 hPa NE 10.3 km/h 23.3 km/h 73 % 0 mm 0.00 W/m2
00:39 -8.9 °C -11.6 °C 34594.8 hPa NE 10.3 km/h 23.3 km/h 73 % 0 mm 0.00 W/m2
00:44 -8.9 °C -11.6 °C 34594.8 hPa NE 10.3 km/h 20.8 km/h 73 % 0 mm 0.00 W/m2
00:49 -8.9 °C -11.6 °C 34591.4 hPa NE 10.3 km/h 23.3 km/h 73 % 0 mm 0.00 W/m2
00:54 -8.9 °C -11.5 °C 34594.8 hPa NE 10.3 km/h 20.8 km/h 74 % 0 mm 0.00 W/m2
00:59 -8.9 °C -11.5 °C 34591.4 hPa NE 10.3 km/h 15.6 km/h 74 % 0 mm 0.00 W/m2
01:04 -9 °C -11.6 °C 34591.4 hPa ENE 10.3 km/h 23.3 km/h 74 % 0 mm 0.00 W/m2
01:09 -9 °C -11.6 °C 34588 hPa ENE 10.3 km/h 15.6 km/h 74 % 0 mm 0.00 W/m2
01:14 -9.1 °C -11.5 °C 34588 hPa East 7.7 km/h 20.8 km/h 75 % 0 mm 0.00 W/m2
01:19 -9.1 °C -11.5 °C 34588 hPa East 7.7 km/h 20.8 km/h 75 % 0 mm 0.00 W/m2
01:24 -9.1 °C -11.5 °C 34591.4 hPa ENE 7.7 km/h 18.2 km/h 75 % 0 mm 0.00 W/m2
01:29 -9.1 °C -11.4 °C 34588 hPa ENE 7.7 km/h 15.6 km/h 76 % 0 mm 0.00 W/m2
01:34 -9.1 °C -11.6 °C 34588 hPa NNE 7.7 km/h 20.8 km/h 75 % 0 mm 0.00 W/m2
01:39 -9.1 °C -11.6 °C 34588 hPa NE 7.7 km/h 20.8 km/h 75 % 0 mm 0.00 W/m2
01:44 -9.1 °C -11.4 °C 34588 hPa NE 10.3 km/h 23.3 km/h 76 % 0 mm 0.00 W/m2
01:49 -9.1 °C -11.4 °C 34584.6 hPa NE 10.3 km/h 20.8 km/h 76 % 0 mm 0.00 W/m2
01:54 -9.1 °C -11.4 °C 34584.6 hPa NE 10.3 km/h 31.1 km/h 76 % 0 mm 0.00 W/m2
01:59 -9.1 °C -11.4 °C 34581.2 hPa NE 10.3 km/h 12.9 km/h 76 % 0 mm 0.00 W/m2
02:04 -9.1 °C -11.4 °C 34581.2 hPa ENE 7.7 km/h 12.9 km/h 76 % 0 mm 0.00 W/m2
02:09 -9.2 °C -11.5 °C 34577.8 hPa ENE 7.7 km/h 15.6 km/h 76 % 0 mm 0.00 W/m2
02:14 -9.2 °C -11.4 °C 34577.8 hPa ENE 7.7 km/h 20.8 km/h 77 % 0 mm 0.00 W/m2
02:19 -9.2 °C -11.4 °C 34574.4 hPa ENE 7.7 km/h 20.8 km/h 77 % 0 mm 0.00 W/m2
02:24 -9.2 °C -11.4 °C 34574.4 hPa ENE 7.7 km/h 12.9 km/h 77 % 0 mm 0.00 W/m2
02:29 -9.3 °C -11.5 °C 34574.4 hPa East 7.7 km/h 20.8 km/h 77 % 0 mm 0.00 W/m2
02:34 -9.3 °C -11.5 °C 34571.1 hPa East 7.7 km/h 25.9 km/h 77 % 0 mm 0.00 W/m2
02:39 -9.3 °C -11.5 °C 34571.1 hPa ENE 10.3 km/h 25.9 km/h 77 % 0 mm 0.00 W/m2
02:44 -9.2 °C -11.4 °C 34571.1 hPa East 12.9 km/h 20.8 km/h 77 % 0 mm 0.00 W/m2
02:49 -9.2 °C -11.3 °C 34571.1 hPa ENE 12.9 km/h 15.6 km/h 78 % 0 mm 0.00 W/m2
02:54 -9.2 °C -11.3 °C 34571.1 hPa East 10.3 km/h 25.9 km/h 78 % 0 mm 0.00 W/m2
02:55 -9.2 °C -11.3 °C 34571.1 hPa ENE 10.3 km/h 25.9 km/h 78 % 0 mm 0.00 W/m2
Meteocoruña
Agradecimientos a Weather Underground - 1.5 mb